| time (UTC) | temp F | wind direction | speed MPH | gust MPH | rain 1hr in | rain 24hr in | rain mn in | humidity % | barometer mb |
| 20260905144004 | 85 | 266 | 1.0 | 3.0 | 0.00 | 0.92 | 0.00 | 89 | 1013.3 |
| 20260905143217 | 83 | 233 | 1.0 | 2.0 | 0.00 | 0.92 | 0.00 | 91 | 1013.2 |
| 20260905142004 | 81 | 329 | 1.0 | 2.0 | 0.00 | 0.92 | 0.00 | 95 | 1013.2 |
| 20260905141005 | 80 | 280 | 1.0 | 2.0 | 0.00 | 0.92 | 0.00 | 97 | 1013.2 |
| 20260905140215 | 80 | 234 | 1.0 | 2.0 | 0.00 | 0.92 | 0.00 | 98 | 1013.1 |
| 20260905135216 | 80 | 264 | 0.0 | 2.0 | 0.00 | 0.92 | 0.00 | 99 | 1013.2 |
| 20260905134004 | 80 | 269 | 0.0 | 2.0 | 0.00 | 0.92 | 0.00 | 99 | 1013.3 |
| 20260905133004 | 79 | 275 | 0.0 | 2.0 | 0.00 | 0.92 | 0.00 | 99 | 1012.9 |
| 20260905132004 | 79 | 296 | 0.0 | 1.0 | 0.00 | 0.92 | 0.00 | 99 | 1013.0 |
| 20260905131215 | 78 | 251 | 1.0 | 3.0 | 0.00 | 0.92 | 0.00 | 99 | 1013.0 |
| 20260905130005 | 78 | 239 | 1.0 | 3.0 | 0.00 | 0.92 | 0.00 | 99 | 1012.8 |
| 20260905125217 | 78 | 271 | 0.0 | 2.0 | 0.00 | 0.92 | 0.00 | 99 | 1013.1 |
| 20260905124004 | 78 | 176 | 0.0 | 2.0 | 0.00 | 0.92 | 0.00 | 99 | 1012.8 |
| 20260905123005 | 77 | 179 | 0.0 | 1.0 | 0.00 | 0.92 | 0.00 | 99 | 1012.8 |
| 20260905122004 | 77 | 184 | 0.0 | 0.0 | 0.00 | 0.92 | 0.00 | 99 | 1013.1 |
| 20260905121005 | 76 | 190 | 0.0 | 1.0 | 0.00 | 0.92 | 0.00 | 99 | 1012.6 |
| 20260905120006 | 76 | 0 | 0.0 | 0.0 | 0.00 | 0.92 | 0.00 | 99 | 1012.6 |
| 20260905115004 | 76 | 0 | 0.0 | 0.0 | 0.00 | 0.92 | 0.00 | 99 | 1012.0 |
| 20260905114005 | 76 | 231 | 0.0 | 1.0 | 0.00 | 0.92 | 0.00 | 99 | 1012.1 |
| 20260905113005 | 76 | 196 | 0.0 | 2.0 | 0.00 | 0.92 | 0.00 | 99 | 1011.9 |
| 20260905112005 | 76 | 220 | 1.0 | 4.0 | 0.00 | 0.92 | 0.00 | 99 | 1012.1 |
| 20260905111216 | 76 | 242 | 0.0 | 1.0 | 0.00 | 0.92 | 0.00 | 99 | 1011.9 |
| 20260905110006 | 76 | 260 | 0.0 | 2.0 | 0.00 | 0.92 | 0.00 | 99 | 1011.8 |
| 20260905105004 | 76 | 214 | 1.0 | 2.0 | 0.00 | 0.92 | 0.00 | 99 | 1012.1 |
| 20260905104005 | 76 | 0 | 0.0 | 0.0 | 0.00 | 0.92 | 0.00 | 99 | 1011.9 |
| 20260905103215 | 76 | 0 | 0.0 | 0.0 | 0.00 | 0.92 | 0.00 | 99 | 1012.1 |
| 20260905102216 | 76 | 0 | 0.0 | 0.0 | 0.00 | 0.92 | 0.00 | 99 | 1012.0 |
| 20260905101217 | 76 | 0 | 0.0 | 0.0 | 0.00 | 0.92 | 0.00 | 99 | 1011.9 |
| 20260905100218 | 76 | 301 | 0.0 | 1.0 | 0.00 | 0.92 | 0.00 | 99 | 1012.0 |
| 20260905095214 | 76 | 19 | 0.0 | 2.0 | 0.00 | 0.92 | 0.00 | 99 | 1011.7 |
| 20260905094005 | 76 | 144 | 0.0 | 1.0 | 0.00 | 0.92 | 0.00 | 99 | 1011.6 |
| 20260905093005 | 76 | 0 | 0.0 | 0.0 | 0.00 | 0.92 | 0.00 | 99 | 1011.5 |
| 20260905092004 | 76 | 0 | 0.0 | 0.0 | 0.00 | 0.92 | 0.00 | 99 | 1011.7 |
| 20260905091005 | 76 | 0 | 0.0 | 0.0 | 0.00 | 0.92 | 0.00 | 99 | 1011.7 |
| 20260905090005 | 76 | 0 | 0.0 | 0.0 | 0.00 | 0.92 | 0.00 | 99 | 1011.8 |
| 20260905085005 | 76 | 0 | 0.0 | 0.0 | 0.00 | 0.92 | 0.00 | 99 | 1011.6 |
| 20260905084005 | 76 | 0 | 0.0 | 0.0 | 0.00 | 0.92 | 0.00 | 99 | 1011.8 |
| 20260905083216 | 76 | 0 | 0.0 | 0.0 | 0.00 | 0.92 | 0.00 | 99 | 1011.5 |
| 20260905082005 | 76 | 0 | 0.0 | 0.0 | 0.00 | 0.92 | 0.00 | 99 | 1011.8 |
| 20260905081005 | 76 | 0 | 0.0 | 0.0 | 0.00 | 0.92 | 0.00 | 99 | 1011.7 |
| 20260905080219 | 76 | 0 | 0.0 | 0.0 | 0.00 | 0.92 | 0.00 | 99 | 1011.5 |
| 20260905075005 | 76 | 0 | 0.0 | 0.0 | 0.00 | 0.92 | 0.00 | 99 | 1011.2 |
| 20260905074005 | 76 | 0 | 0.0 | 0.0 | 0.00 | 0.92 | 0.00 | 99 | 1011.5 |
| 20260905073005 | 76 | 0 | 0.0 | 0.0 | 0.00 | 0.92 | 0.00 | 99 | 1011.7 |
| 20260905072004 | 76 | 0 | 0.0 | 0.0 | 0.00 | 0.92 | 0.00 | 99 | 1011.7 |
| 20260905071219 | 76 | 0 | 0.0 | 0.0 | 0.00 | 0.92 | 0.00 | 99 | 1011.8 |
| 20260905070006 | 76 | 0 | 0.0 | 0.0 | 0.00 | 0.92 | 0.00 | 99 | 1011.9 |
| 20260905065004 | 76 | 0 | 0.0 | 0.0 | 0.00 | 0.92 | 0.00 | 99 | 1012.0 |
| 20260905064217 | 76 | 0 | 0.0 | 0.0 | 0.00 | 0.92 | 0.00 | 99 | 1012.0 |
| 20260905063005 | 76 | 0 | 0.0 | 0.0 | 0.00 | 0.92 | 0.00 | 99 | 1012.1 |
| 20260905062004 | 76 | 0 | 0.0 | 0.0 | 0.00 | 0.92 | 0.00 | 99 | 1012.3 |
| 20260905061005 | 76 | 0 | 0.0 | 0.0 | 0.00 | 0.92 | 0.00 | 99 | 1012.1 |
| 20260905060215 | 76 | 0 | 0.0 | 0.0 | 0.00 | 0.92 | 0.00 | 99 | 1012.4 |
| 20260905055005 | 76 | 0 | 0.0 | 0.0 | 0.00 | 0.92 | 0.00 | 99 | 1012.6 |
| 20260905054005 | 76 | 0 | 0.0 | 0.0 | 0.00 | 0.92 | 0.00 | 99 | 1012.7 |
| 20260905053005 | 76 | 0 | 0.0 | 0.0 | 0.00 | 0.92 | 0.00 | 99 | 1012.7 |
| 20260905052219 | 76 | 0 | 0.0 | 0.0 | 0.00 | 0.92 | 0.00 | 99 | 1012.7 |
| 20260905051215 | 76 | 48 | 0.0 | 2.0 | 0.00 | 0.92 | 0.00 | 99 | 1012.6 |
| 20260905050216 | 76 | 0 | 0.0 | 0.0 | 0.00 | 0.92 | 0.00 | 99 | 1012.6 |
| 20260905045005 | 76 | 0 | 0.0 | 0.0 | 0.00 | 0.92 | 0.00 | 99 | 1012.8 |
| 20260905044005 | 76 | 0 | 0.0 | 0.0 | 0.00 | 0.92 | 0.00 | 99 | 1012.8 |
| 20260905043219 | 75 | 131 | 0.0 | 2.0 | 0.00 | 0.92 | 0.00 | 99 | 1012.8 |
| 20260905042005 | 75 | 157 | 0.0 | 2.0 | 0.00 | 0.92 | 0.00 | 99 | 1012.9 |
| 20260905041005 | 75 | 171 | 0.0 | 3.0 | 0.00 | 0.92 | 0.00 | 99 | 1012.9 |
| 20260905040028 | 75 | 146 | 0.0 | 2.0 | 0.00 | 0.92 | 0.00 | 99 | 1012.9 |
| 20260905035005 | 75 | 147 | 0.0 | 3.0 | 0.00 | 0.92 | 0.92 | 99 | 1013.1 |
| 20260905034005 | 75 | 151 | 0.0 | 1.0 | 0.01 | 0.92 | 0.92 | 99 | 1013.3 |
| 20260905033219 | 75 | 158 | 0.0 | 1.0 | 0.01 | 0.92 | 0.92 | 99 | 1013.3 |
| 20260905032006 | 75 | 0 | 0.0 | 0.0 | 0.01 | 0.92 | 0.92 | 99 | 1013.8 |
| 20260905031005 | 75 | 0 | 0.0 | 0.0 | 0.02 | 0.92 | 0.92 | 99 | 1013.6 |
| 20260905030005 | 75 | 0 | 0.0 | 0.0 | 0.03 | 0.92 | 0.92 | 99 | 1013.6 |
| 20260905025005 | 75 | 0 | 0.0 | 0.0 | 0.04 | 0.92 | 0.92 | 99 | 1013.6 |
| 20260905024005 | 75 | 0 | 0.0 | 0.0 | 0.04 | 0.91 | 0.91 | 99 | 1013.7 |
| 20260905023220 | 75 | 0 | 0.0 | 0.0 | 0.05 | 0.91 | 0.91 | 99 | 1013.6 |
| 20260905022216 | 74 | 142 | 0.0 | 1.0 | 0.06 | 0.91 | 0.91 | 99 | 1013.3 |
| 20260905021006 | 74 | 147 | 0.0 | 1.0 | 0.05 | 0.90 | 0.90 | 99 | 1013.6 |
| 20260905020006 | 74 | 160 | 0.0 | 1.0 | 0.04 | 0.89 | 0.89 | 99 | 1013.7 |
| 20260905015005 | 74 | 179 | 0.0 | 1.0 | 0.04 | 0.88 | 0.88 | 99 | 1013.8 |
| 20260905014005 | 74 | 0 | 0.0 | 0.0 | 0.03 | 0.87 | 0.87 | 99 | 1013.7 |
| 20260905013005 | 74 | 161 | 0.0 | 2.0 | 0.02 | 0.85 | 0.85 | 99 | 1013.5 |
| 20260905012005 | 74 | 78 | 0.0 | 1.0 | 0.03 | 0.85 | 0.85 | 99 | 1013.5 |
| 20260905011005 | 74 | 77 | 0.0 | 3.0 | 0.03 | 0.85 | 0.85 | 99 | 1013.8 |
| 20260905010005 | 74 | 79 | 0.0 | 3.0 | 0.04 | 0.85 | 0.85 | 99 | 1013.5 |
| 20260905005214 | 75 | 93 | 0.0 | 1.0 | 0.04 | 0.84 | 0.84 | 99 | 1013.4 |
| 20260905004215 | 75 | 77 | 0.0 | 1.0 | 0.05 | 0.84 | 0.84 | 99 | 1013.5 |
| 20260905003005 | 74 | 72 | 0.0 | 1.0 | 0.06 | 0.83 | 0.83 | 99 | 1013.6 |
| 20260905002005 | 75 | 80 | 1.0 | 4.0 | 0.08 | 0.82 | 0.82 | 99 | 1013.4 |
| 20260905001005 | 75 | 73 | 1.0 | 4.0 | 0.08 | 0.82 | 0.82 | 99 | 1013.3 |
| 20260905000006 | 76 | 100 | 0.0 | 1.0 | 0.07 | 0.81 | 0.81 | 99 | 1013.1 |
| 20260904235005 | 76 | 156 | 0.0 | 1.0 | 0.05 | 0.79 | 0.79 | 99 | 1012.9 |
| 20260904234005 | 76 | 168 | 0.0 | 2.0 | 0.06 | 0.79 | 0.79 | 99 | 1012.7 |
| 20260904233005 | 76 | 118 | 0.0 | 2.0 | 0.05 | 0.77 | 0.77 | 99 | 1012.9 |
| 20260904232005 | 76 | 137 | 0.0 | 1.0 | 0.04 | 0.74 | 0.74 | 99 | 1013.3 |
| 20260904231005 | 76 | 122 | 0.0 | 1.0 | 0.11 | 0.74 | 0.74 | 99 | 1013.0 |
| 20260904230005 | 76 | 91 | 0.0 | 1.0 | 0.21 | 0.74 | 0.74 | 99 | 1012.8 |
| 20260904225006 | 76 | 97 | 0.0 | 0.0 | 0.40 | 0.74 | 0.74 | 99 | 1013.0 |
| 20260904224005 | 75 | 93 | 0.0 | 2.0 | 0.70 | 0.73 | 0.73 | 99 | 1012.7 |
| 20260904223217 | 75 | 68 | 0.0 | 1.0 | 0.72 | 0.73 | 0.73 | 98 | 1012.6 |
| 20260904222005 | 75 | 67 | 0.0 | 1.0 | 0.70 | 0.70 | 0.70 | 98 | 1012.6 |
| 20260904221005 | 75 | 89 | 0.0 | 1.0 | 0.63 | 0.63 | 0.63 | 98 | 1012.7 |
| 20260904220006 | 75 | 134 | 0.0 | 2.0 | 0.53 | 0.53 | 0.53 | 97 | 1013.1 |
| 20260904215006 | 74 | 90 | 1.0 | 3.0 | 0.34 | 0.34 | 0.35 | 96 | 1013.4 |
| 20260904214005 | 75 | 218 | 2.0 | 7.0 | 0.03 | 0.03 | 0.04 | 94 | 1013.6 |
| 20260904213005 | 78 | 297 | 4.0 | 6.0 | 0.00 | 0.00 | 0.00 | 88 | 1013.5 |
| 20260904212005 | 81 | 331 | 4.0 | 10.0 | 0.00 | 0.00 | 0.00 | 87 | 1013.0 |
| 20260904211005 | 86 | 64 | 2.0 | 8.0 | 0.00 | 0.00 | 0.00 | 85 | 1012.4 |
| 20260904210216 | 86 | 74 | 2.0 | 8.0 | 0.00 | 0.00 | 0.00 | 85 | 1011.8 |
| 20260904205005 | 86 | 77 | 1.0 | 4.0 | 0.00 | 0.00 | 0.00 | 83 | 1011.4 |
| 20260904204005 | 87 | 91 | 2.0 | 9.0 | 0.00 | 0.00 | 0.00 | 81 | 1011.4 |
| 20260904203219 | 88 | 92 | 2.0 | 8.0 | 0.00 | 0.00 | 0.00 | 80 | 1011.6 |
| 20260904202005 | 89 | 81 | 2.0 | 5.0 | 0.00 | 0.00 | 0.00 | 78 | 1012.1 |
| 20260904201005 | 89 | 87 | 3.0 | 10.0 | 0.00 | 0.00 | 0.00 | 80 | 1011.5 |
| 20260904200006 | 89 | 67 | 4.0 | 11.0 | 0.00 | 0.00 | 0.00 | 82 | 1011.8 |
| 20260904195005 | 90 | 81 | 3.0 | 13.0 | 0.00 | 0.00 | 0.00 | 80 | 1012.2 |
| 20260904194005 | 93 | 105 | 1.0 | 3.0 | 0.00 | 0.00 | 0.00 | 71 | 1012.0 |
| 20260904193005 | 90 | 218 | 0.0 | 1.0 | 0.00 | 0.00 | 0.00 | 77 | 1011.9 |
| 20260904192005 | 89 | 270 | 1.0 | 3.0 | 0.00 | 0.00 | 0.00 | 81 | 1012.3 |
| 20260904191005 | 89 | 57 | 0.0 | 2.0 | 0.00 | 0.00 | 0.00 | 83 | 1012.5 |
| 20260904190006 | 90 | 56 | 0.0 | 1.0 | 0.00 | 0.00 | 0.00 | 81 | 1012.4 |
| 20260904185218 | 89 | 55 | 0.0 | 1.0 | 0.00 | 0.00 | 0.00 | 79 | 1012.5 |
| 20260904184006 | 90 | 126 | 0.0 | 2.0 | 0.00 | 0.01 | 0.00 | 76 | 1012.6 |
| 20260904183006 | 91 | 80 | 0.0 | 1.0 | 0.00 | 0.13 | 0.00 | 76 | 1012.8 |
| 20260904182005 | 89 | 164 | 1.0 | 2.0 | 0.00 | 0.55 | 0.00 | 79 | 1013.0 |
| 20260904181005 | 89 | 180 | 1.0 | 3.0 | 0.00 | 1.13 | 0.00 | 82 | 1013.4 |
| 20260904180005 | 90 | 193 | 1.0 | 3.0 | 0.00 | 1.13 | 0.00 | 79 | 1013.4 |
| 20260904175005 | 91 | 110 | 1.0 | 2.0 | 0.00 | 1.13 | 0.00 | 73 | 1013.5 |
| 20260904174005 | 92 | 176 | 1.0 | 3.0 | 0.00 | 1.13 | 0.00 | 72 | 1013.2 |
| 20260904173005 | 90 | 101 | 1.0 | 3.0 | 0.00 | 1.13 | 0.00 | 74 | 1013.3 |
| 20260904172005 | 89 | 161 | 0.0 | 2.0 | 0.00 | 1.13 | 0.00 | 77 | 1013.5 |
| 20260904171005 | 89 | 169 | 0.0 | 2.0 | 0.00 | 1.13 | 0.00 | 74 | 1013.7 |
| 20260904170005 | 90 | 112 | 0.0 | 1.0 | 0.00 | 1.13 | 0.00 | 76 | 1014.0 |
| 20260904165005 | 91 | 208 | 1.0 | 4.0 | 0.00 | 1.13 | 0.00 | 72 | 1014.0 |
| 20260904164005 | 90 | 299 | 1.0 | 3.0 | 0.00 | 1.13 | 0.00 | 76 | 1014.3 |
| 20260904163005 | 91 | 237 | 1.0 | 3.0 | 0.00 | 1.13 | 0.00 | 73 | 1014.2 |
| 20260904162005 | 88 | 90 | 1.0 | 3.0 | 0.00 | 1.13 | 0.00 | 79 | 1014.5 |
| 20260904161005 | 89 | 77 | 0.0 | 2.0 | 0.00 | 1.13 | 0.00 | 80 | 1014.4 |
| 20260904160005 | 89 | 77 | 1.0 | 4.0 | 0.00 | 1.13 | 0.00 | 79 | 1014.4 |
| 20260904155005 | 90 | 164 | 1.0 | 3.0 | 0.00 | 1.13 | 0.00 | 78 | 1014.4 |
| 20260904154005 | 89 | 88 | 1.0 | 3.0 | 0.00 | 1.13 | 0.00 | 80 | 1014.5 |
| 20260904153005 | 87 | 121 | 1.0 | 3.0 | 0.00 | 1.16 | 0.00 | 84 | 1014.5 |
| 20260904152005 | 88 | 138 | 1.0 | 3.0 | 0.00 | 1.20 | 0.00 | 82 | 1014.5 |
| 20260904151005 | 86 | 184 | 1.0 | 3.0 | 0.00 | 1.23 | 0.00 | 85 | 1014.4 |
| 20260904150005 | 85 | 114 | 0.0 | 2.0 | 0.00 | 1.39 | 0.00 | 86 | 1014.5 |
| 20260904145005 | 85 | 61 | 0.0 | 2.0 | 0.00 | 1.41 | 0.00 | 88 | 1014.6 |